DMSP 5D-2 F13 DEB, 42268

Orbit data source: Space-Track

DMSP 5D-2 F13 DEB, 42268 is space debris in SSO originally from a launch on Fri, 24 Mar 1995 UTC launched from the Air Force Western Test Range (AFWTR). Debris objects in space refer to the collection of defunct objects orbiting the Earth. Examples of debris include non-operational satellites, rocket bodies, and fragments generated from explosions, collisions, or faulty payload assembly.

Loading next visibility...
Identifier
42268, 1995-015GJ
Orbit
SSO
Country
Flag of USUS
Related business
Manufacturer
Unknown
Mission
Spacecraft
Bus & Motor
Unknown
Mass
Unknown
Launch date (UTC)
1995-03-24 (31 years ago)
Launch vehicle
Unknown
Launch site
Air Force Western Test Range (AFWTR)
Object type
Payload
Rocket body
Debris
Shape & HBR
Unknown shape, 0.1 m
Radar Cross Section
Small (<0.1 m²)

Expand to show TLE details & history
Last TLE update: 1 day ago

TLE from 1 day ago
0 DMSP 5D-2 F13 DEB
1 42268U 95015GJ  25291.29511557  .00006078  00000-0  35378-2 0  9995
2 42268  98.7365 133.3934 0121595 314.6393  44.4910 14.05285813533280
Epoch: 2025-10-18T07:04Z
TLE epoch observation values (Epoch: 2025-10-18T07:04:57.985Z)
Latitude
-0.00002°
Longitude
0.12361°
Altitude
816.045 km
Speed
7.477 km/s
True Right ascension
08h 53m 34s
True Declination
0° 00' 00"
Sunlit
Object was in daylight at epoch
Visualization orbit readout
Latitude
Unknown
Longitude
Unknown
Altitude
Unknown
Speed
Unknown
Apparent Right ascension
Unknown
Apparent Declination
Unknown
Sunlit
N/A
Visualization observer readout
Local Sidereal Time
01:49:07
Azimuth
Unknown
Elevation
Unknown
Doppler factor
Unknown
Orbital elements
Apogee altitude
960.895 km
Perigee altitude
784.561 km
Semi-major axis
7,250.865 km
Eccentricity
0.01216
Inclination
98.7365°
RAAN
133.3934°
Arg. of periapsis
314.6393°
True anomaly
45.47812°
Mean anomaly
44.491°
Eccentric anomaly
44.98349°
Mean motion
3.51527 °/min
Orbital period
102.41 mins
BSTAR
0.0035378

Documentation

Showing up to 5 results
|